Time,TemperatureF,DewpointF,PressureIn,WindDirection,WindDirectionDegrees,WindSpeedMPH,WindSpeedGustMPH,Humidity,HourlyPrecipIn,Conditions,Clouds,dailyrainin,SoftwareType,DateUTC
2013-06-05 00:02:00,55.0,-99.9,-100.00,NE,45,11.0,19.0,-999,-99.99,,,-99.99,,2013-06-05 07:02:00,
2013-06-05 00:12:00,55.0,-99.9,-100.00,NE,45,11.0,19.0,-999,-99.99,,,-99.99,,2013-06-05 07:12:00,
2013-06-05 00:22:00,55.0,-99.9,-100.00,NE,45,11.0,17.0,-999,-99.99,,,-99.99,,2013-06-05 07:22:00,
2013-06-05 00:32:00,55.0,-99.9,-100.00,NE,45,11.0,15.0,-999,-99.99,,,-99.99,,2013-06-05 07:32:00,
2013-06-05 00:42:00,55.0,-99.9,-100.00,NE,45,11.0,15.0,-999,-99.99,,,-99.99,,2013-06-05 07:42:00,
2013-06-05 00:52:00,55.0,-99.9,-100.00,East,90,1.0,15.0,-999,-99.99,,,-99.99,,2013-06-05 07:52:00,
2013-06-05 01:02:00,55.0,-99.9,-100.00,East,90,3.0,14.0,-999,-99.99,,,-99.99,,2013-06-05 08:02:00,
2013-06-05 01:12:00,55.0,-99.9,-100.00,East,90,3.0,14.0,-999,-99.99,,,-99.99,,2013-06-05 08:12:00,
2013-06-05 01:22:00,55.0,-99.9,-100.00,East,90,1.0,4.0,-999,-99.99,,,-99.99,,2013-06-05 08:22:00,
2013-06-05 01:32:00,54.0,-99.9,-100.00,NE,45,6.0,8.0,-999,-99.99,,,-99.99,,2013-06-05 08:32:00,
2013-06-05 01:42:00,54.0,-99.9,-100.00,NE,45,6.0,8.0,-999,-99.99,,,-99.99,,2013-06-05 08:42:00,
2013-06-05 01:52:00,54.0,-99.9,-100.00,NE,45,8.0,13.0,-999,-99.99,,,-99.99,,2013-06-05 08:52:00,
2013-06-05 02:02:00,54.0,-99.9,-100.00,East,90,3.0,13.0,-999,-99.99,,,-99.99,,2013-06-05 09:02:00,
2013-06-05 02:12:00,54.0,-99.9,-100.00,East,90,3.0,13.0,-999,-99.99,,,-99.99,,2013-06-05 09:12:00,
2013-06-05 02:22:00,54.0,-99.9,-100.00,East,90,1.0,10.0,-999,-99.99,,,-99.99,,2013-06-05 09:22:00,
2013-06-05 02:33:00,54.0,-99.9,-100.00,East,90,2.0,4.0,-999,-99.99,,,-99.99,,2013-06-05 09:33:00,
2013-06-05 02:43:00,54.0,-99.9,-100.00,East,90,2.0,4.0,-999,-99.99,,,-99.99,,2013-06-05 09:43:00,
2013-06-05 02:53:00,54.0,-99.9,-100.00,SE,135,2.0,3.0,-999,-99.99,,,-99.99,,2013-06-05 09:53:00,
2013-06-05 03:03:00,53.0,-99.9,-100.00,SE,135,4.0,4.0,-999,-99.99,,,-99.99,,2013-06-05 10:03:00,
2013-06-05 03:13:00,53.0,-99.9,-100.00,SE,135,4.0,4.0,-999,-99.99,,,-99.99,,2013-06-05 10:13:00,
2013-06-05 03:23:00,53.0,-99.9,-100.00,SE,135,3.0,4.0,-999,-99.99,,,-99.99,,2013-06-05 10:23:00,
2013-06-05 03:33:00,53.0,-99.9,-100.00,SE,135,3.0,4.0,-999,-99.99,,,-99.99,,2013-06-05 10:33:00,
2013-06-05 03:43:00,53.0,-99.9,-100.00,SE,135,3.0,4.0,-999,-99.99,,,-99.99,,2013-06-05 10:43:00,
2013-06-05 03:53:00,53.0,-99.9,-100.00,SE,135,4.0,6.0,-999,-99.99,,,-99.99,,2013-06-05 10:53:00,
2013-06-05 04:02:00,52.0,-99.9,-100.00,SE,135,2.0,6.0,-999,-99.99,,,-99.99,,2013-06-05 11:02:00,
2013-06-05 04:13:00,52.0,-99.9,-100.00,SE,135,2.0,6.0,-999,-99.99,,,-99.99,,2013-06-05 11:13:00,
2013-06-05 04:22:00,52.0,-99.9,-100.00,East,90,0.0,4.0,-999,-99.99,,,-99.99,,2013-06-05 11:22:00,
2013-06-05 04:33:00,52.0,-99.9,-100.00,NW,315,0.0,3.0,-999,-99.99,,,-99.99,,2013-06-05 11:33:00,
2013-06-05 04:42:00,52.0,-99.9,-100.00,NW,315,0.0,3.0,-999,-99.99,,,-99.99,,2013-06-05 11:42:00,
2013-06-05 04:52:00,52.0,-99.9,-100.00,NE,45,10.0,14.0,-999,-99.99,,,-99.99,,2013-06-05 11:52:00,
2013-06-05 05:02:00,53.0,-99.9,-100.00,NE,45,11.0,15.0,-999,-99.99,,,-99.99,,2013-06-05 12:02:00,
2013-06-05 05:12:00,53.0,-99.9,-100.00,NE,45,11.0,15.0,-999,-99.99,,,-99.99,,2013-06-05 12:12:00,
2013-06-05 05:22:00,53.0,-99.9,-100.00,East,90,4.0,17.0,-999,-99.99,,,-99.99,,2013-06-05 12:22:00,
2013-06-05 05:32:00,52.0,-99.9,-100.00,East,90,3.0,17.0,-999,-99.99,,,-99.99,,2013-06-05 12:32:00,
2013-06-05 05:44:00,52.0,-99.9,-100.00,East,90,3.0,17.0,-999,-99.99,,,-99.99,,2013-06-05 12:44:00,
2013-06-05 05:52:00,52.0,-99.9,-100.00,SE,135,3.0,8.0,-999,-99.99,,,-99.99,,2013-06-05 12:52:00,
2013-06-05 06:02:00,53.0,-99.9,-100.00,SE,135,2.0,8.0,-999,-99.99,,,-99.99,,2013-06-05 13:02:00,
2013-06-05 06:12:00,53.0,-99.9,-100.00,SE,135,2.0,8.0,-999,-99.99,,,-99.99,,2013-06-05 13:12:00,
2013-06-05 06:22:00,53.0,-99.9,-100.00,NE,45,5.0,8.0,-999,-99.99,,,-99.99,,2013-06-05 13:22:00,
2013-06-05 06:33:00,54.0,-99.9,-100.00,NE,45,11.0,15.0,-999,-99.99,,,-99.99,,2013-06-05 13:33:00,
2013-06-05 06:42:00,54.0,-99.9,-100.00,NE,45,11.0,15.0,-999,-99.99,,,-99.99,,2013-06-05 13:42:00,
2013-06-05 06:53:00,54.0,-99.9,-100.00,East,90,8.0,17.0,-999,-99.99,,,-99.99,,2013-06-05 13:53:00,
2013-06-05 07:02:00,53.0,-99.9,-100.00,SE,135,6.0,17.0,-999,-99.99,,,-99.99,,2013-06-05 14:02:00,
2013-06-05 07:13:00,53.0,-99.9,-100.00,SE,135,6.0,17.0,-999,-99.99,,,-99.99,,2013-06-05 14:13:00,
2013-06-05 07:22:00,54.0,-99.9,-100.00,East,90,2.0,8.0,-999,-99.99,,,-99.99,,2013-06-05 14:22:00,
2013-06-05 07:32:00,54.0,-99.9,-100.00,SW,225,0.0,7.0,-999,-99.99,,,-99.99,,2013-06-05 14:32:00,
2013-06-05 07:42:00,54.0,-99.9,-100.00,SW,225,0.0,7.0,-999,-99.99,,,-99.99,,2013-06-05 14:42:00,
2013-06-05 07:52:00,54.0,-99.9,-100.00,South,180,2.0,4.0,-999,-99.99,,,-99.99,,2013-06-05 14:52:00,
2013-06-05 08:03:00,55.0,-99.9,-100.00,SE,135,1.0,4.0,-999,-99.99,,,-99.99,,2013-06-05 15:03:00,
2013-06-05 08:12:00,55.0,-99.9,-100.00,SE,135,1.0,4.0,-999,-99.99,,,-99.99,,2013-06-05 15:12:00,
2013-06-05 08:23:00,55.0,-99.9,-100.00,East,90,3.0,8.0,-999,-99.99,,,-99.99,,2013-06-05 15:23:00,
2013-06-05 08:33:00,56.0,-99.9,-100.00,NE,45,12.0,16.0,-999,-99.99,,,-99.99,,2013-06-05 15:33:00,
2013-06-05 08:43:00,56.0,-99.9,-100.00,NE,45,12.0,16.0,-999,-99.99,,,-99.99,,2013-06-05 15:43:00,
2013-06-05 08:53:00,58.0,-99.9,-100.00,NE,45,11.0,17.0,-999,-99.99,,,-99.99,,2013-06-05 15:53:00,
2013-06-05 09:04:00,59.0,-99.9,-100.00,East,90,5.0,17.0,-999,-99.99,,,-99.99,,2013-06-05 16:04:00,
2013-06-05 09:13:00,59.0,-99.9,-100.00,East,90,5.0,17.0,-999,-99.99,,,-99.99,,2013-06-05 16:13:00,
2013-06-05 09:23:00,58.0,-99.9,-100.00,NE,45,9.0,16.0,-999,-99.99,,,-99.99,,2013-06-05 16:23:00,
2013-06-05 09:32:00,60.0,-99.9,-100.00,NE,45,17.0,20.0,-999,-99.99,,,-99.99,,2013-06-05 16:32:00,
2013-06-05 09:42:00,60.0,-99.9,-100.00,NE,45,17.0,20.0,-999,-99.99,,,-99.99,,2013-06-05 16:42:00,
2013-06-05 09:54:00,59.0,-99.9,-100.00,NE,45,19.0,22.0,-999,-99.99,,,-99.99,,2013-06-05 16:54:00,
2013-06-05 10:03:00,59.0,-99.9,-100.00,NE,45,19.0,23.0,-999,-99.99,,,-99.99,,2013-06-05 17:03:00,
2013-06-05 10:13:00,59.0,-99.9,-100.00,NE,45,19.0,23.0,-999,-99.99,,,-99.99,,2013-06-05 17:13:00,
2013-06-05 10:23:00,58.0,-99.9,-100.00,NE,45,21.0,25.0,-999,-99.99,,,-99.99,,2013-06-05 17:23:00,
2013-06-05 10:33:00,58.0,-99.9,-100.00,NE,45,21.0,26.0,-999,-99.99,,,-99.99,,2013-06-05 17:33:00,
2013-06-05 10:43:00,58.0,-99.9,-100.00,NE,45,21.0,26.0,-999,-99.99,,,-99.99,,2013-06-05 17:43:00,
2013-06-05 10:52:00,59.0,-99.9,-100.00,NE,45,21.0,26.0,-999,-99.99,,,-99.99,,2013-06-05 17:52:00,
2013-06-05 11:03:00,58.0,-99.9,-100.00,NE,45,21.0,26.0,-999,-99.99,,,-99.99,,2013-06-05 18:03:00,
2013-06-05 11:13:00,58.0,-99.9,-100.00,NE,45,21.0,26.0,-999,-99.99,,,-99.99,,2013-06-05 18:13:00,
2013-06-05 11:23:00,58.0,-99.9,-100.00,NE,45,22.0,26.0,-999,-99.99,,,-99.99,,2013-06-05 18:23:00,
2013-06-05 11:32:00,58.0,-99.9,-100.00,NE,45,21.0,26.0,-999,-99.99,,,-99.99,,2013-06-05 18:32:00,
2013-06-05 11:42:00,58.0,-99.9,-100.00,NE,45,21.0,26.0,-999,-99.99,,,-99.99,,2013-06-05 18:42:00,
2013-06-05 11:52:00,59.0,-99.9,-100.00,NE,45,20.0,26.0,-999,-99.99,,,-99.99,,2013-06-05 18:52:00,
2013-06-05 12:03:00,59.0,-99.9,-100.00,NE,45,21.0,30.0,-999,-99.99,,,-99.99,,2013-06-05 19:03:00,
2013-06-05 12:13:00,59.0,-99.9,-100.00,NE,45,21.0,30.0,-999,-99.99,,,-99.99,,2013-06-05 19:13:00,
2013-06-05 12:23:00,59.0,-99.9,-100.00,NE,45,22.0,30.0,-999,-99.99,,,-99.99,,2013-06-05 19:23:00,
2013-06-05 12:32:00,59.0,-99.9,-100.00,NE,45,19.0,28.0,-999,-99.99,,,-99.99,,2013-06-05 19:32:00,
2013-06-05 12:42:00,59.0,-99.9,-100.00,NE,45,19.0,28.0,-999,-99.99,,,-99.99,,2013-06-05 19:42:00,
2013-06-05 12:53:00,59.0,-99.9,-100.00,NE,45,17.0,27.0,-999,-99.99,,,-99.99,,2013-06-05 19:53:00,
2013-06-05 13:03:00,60.0,-99.9,-100.00,NE,45,21.0,26.0,-999,-99.99,,,-99.99,,2013-06-05 20:03:00,
2013-06-05 13:12:00,60.0,-99.9,-100.00,NE,45,21.0,26.0,-999,-99.99,,,-99.99,,2013-06-05 20:12:00,
2013-06-05 13:23:00,60.0,-99.9,-100.00,NE,45,20.0,28.0,-999,-99.99,,,-99.99,,2013-06-05 20:23:00,
2013-06-05 13:32:00,60.0,-99.9,-100.00,NE,45,24.0,31.0,-999,-99.99,,,-99.99,,2013-06-05 20:32:00,
2013-06-05 13:42:00,60.0,-99.9,-100.00,NE,45,24.0,31.0,-999,-99.99,,,-99.99,,2013-06-05 20:42:00,
2013-06-05 13:52:00,59.0,-99.9,-100.00,NE,45,17.0,31.0,-999,-99.99,,,-99.99,,2013-06-05 20:52:00,
2013-06-05 14:02:00,59.0,-99.9,-100.00,NE,45,19.0,31.0,-999,-99.99,,,-99.99,,2013-06-05 21:02:00,
2013-06-05 14:12:00,59.0,-99.9,-100.00,NE,45,19.0,31.0,-999,-99.99,,,-99.99,,2013-06-05 21:12:00,
2013-06-05 14:23:00,59.0,-99.9,-100.00,NE,45,21.0,27.0,-999,-99.99,,,-99.99,,2013-06-05 21:23:00,
2013-06-05 14:33:00,59.0,-99.9,-100.00,NE,45,18.0,27.0,-999,-99.99,,,-99.99,,2013-06-05 21:33:00,
2013-06-05 14:43:00,59.0,-99.9,-100.00,NE,45,18.0,27.0,-999,-99.99,,,-99.99,,2013-06-05 21:43:00,
2013-06-05 14:53:00,59.0,-99.9,-100.00,NE,45,19.0,27.0,-999,-99.99,,,-99.99,,2013-06-05 21:53:00,
2013-06-05 15:03:00,60.0,-99.9,-100.00,NE,45,24.0,30.0,-999,-99.99,,,-99.99,,2013-06-05 22:03:00,
2013-06-05 15:13:00,60.0,-99.9,-100.00,NE,45,24.0,30.0,-999,-99.99,,,-99.99,,2013-06-05 22:13:00,
2013-06-05 15:23:00,59.0,-99.9,-100.00,NE,45,20.0,30.0,-999,-99.99,,,-99.99,,2013-06-05 22:23:00,
2013-06-05 15:33:00,60.0,-99.9,-100.00,NE,45,22.0,31.0,-999,-99.99,,,-99.99,,2013-06-05 22:33:00,
2013-06-05 15:43:00,60.0,-99.9,-100.00,NE,45,22.0,31.0,-999,-99.99,,,-99.99,,2013-06-05 22:43:00,
2013-06-05 15:53:00,60.0,-99.9,-100.00,NE,45,24.0,32.0,-999,-99.99,,,-99.99,,2013-06-05 22:53:00,
2013-06-05 16:02:00,60.0,-99.9,-100.00,NE,45,26.0,34.0,-999,-99.99,,,-99.99,,2013-06-05 23:02:00,
2013-06-05 16:12:00,60.0,-99.9,-100.00,NE,45,26.0,34.0,-999,-99.99,,,-99.99,,2013-06-05 23:12:00,
2013-06-05 16:22:00,59.0,-99.9,-100.00,NE,45,24.0,34.0,-999,-99.99,,,-99.99,,2013-06-05 23:22:00,
2013-06-05 16:32:00,59.0,-99.9,-100.00,NE,45,26.0,36.0,-999,-99.99,,,-99.99,,2013-06-05 23:32:00,
2013-06-05 16:42:00,59.0,-99.9,-100.00,NE,45,26.0,36.0,-999,-99.99,,,-99.99,,2013-06-05 23:42:00,
2013-06-05 16:53:00,59.0,-99.9,-100.00,NE,45,29.0,36.0,-999,-99.99,,,-99.99,,2013-06-05 23:53:00,
2013-06-05 17:02:00,59.0,-99.9,-100.00,NE,45,29.0,37.0,-999,-99.99,,,-99.99,,2013-06-06 00:02:00,
2013-06-05 17:12:00,59.0,-99.9,-100.00,NE,45,29.0,37.0,-999,-99.99,,,-99.99,,2013-06-06 00:12:00,
2013-06-05 17:22:00,58.0,-99.9,-100.00,NE,45,24.0,37.0,-999,-99.99,,,-99.99,,2013-06-06 00:22:00,
2013-06-05 17:32:00,58.0,-99.9,-100.00,NE,45,27.0,35.0,-999,-99.99,,,-99.99,,2013-06-06 00:32:00,
2013-06-05 17:43:00,58.0,-99.9,-100.00,NE,45,27.0,35.0,-999,-99.99,,,-99.99,,2013-06-06 00:43:00,
2013-06-05 17:52:00,57.0,-99.9,-100.00,NE,45,21.0,35.0,-999,-99.99,,,-99.99,,2013-06-06 00:52:00,
2013-06-05 18:02:00,57.0,-99.9,-100.00,NE,45,24.0,34.0,-999,-99.99,,,-99.99,,2013-06-06 01:02:00,
2013-06-05 18:13:00,57.0,-99.9,-100.00,NE,45,24.0,34.0,-999,-99.99,,,-99.99,,2013-06-06 01:13:00,
2013-06-05 18:22:00,57.0,-99.9,-100.00,NE,45,24.0,34.0,-999,-99.99,,,-99.99,,2013-06-06 01:22:00,
2013-06-05 18:32:00,57.0,-99.9,-100.00,NE,45,22.0,33.0,-999,-99.99,,,-99.99,,2013-06-06 01:32:00,
2013-06-05 18:42:00,57.0,-99.9,-100.00,NE,45,22.0,33.0,-999,-99.99,,,-99.99,,2013-06-06 01:42:00,
2013-06-05 18:53:00,57.0,-99.9,-100.00,NE,45,25.0,35.0,-999,-99.99,,,-99.99,,2013-06-06 01:53:00,
2013-06-05 19:02:00,56.0,-99.9,-100.00,NE,45,27.0,36.0,-999,-99.99,,,-99.99,,2013-06-06 02:02:00,
2013-06-05 19:12:00,56.0,-99.9,-100.00,NE,45,27.0,36.0,-999,-99.99,,,-99.99,,2013-06-06 02:12:00,
2013-06-05 19:22:00,56.0,-99.9,-100.00,NE,45,24.0,36.0,-999,-99.99,,,-99.99,,2013-06-06 02:22:00,
2013-06-05 19:32:00,55.0,-99.9,-100.00,NE,45,26.0,34.0,-999,-99.99,,,-99.99,,2013-06-06 02:32:00,
2013-06-05 19:42:00,55.0,-99.9,-100.00,NE,45,26.0,34.0,-999,-99.99,,,-99.99,,2013-06-06 02:42:00,
2013-06-05 19:52:00,55.0,-99.9,-100.00,NE,45,26.0,34.0,-999,-99.99,,,-99.99,,2013-06-06 02:52:00,
2013-06-05 20:02:00,55.0,-99.9,-100.00,NE,45,20.0,32.0,-999,-99.99,,,-99.99,,2013-06-06 03:02:00,
2013-06-05 20:12:00,55.0,-99.9,-100.00,NE,45,20.0,32.0,-999,-99.99,,,-99.99,,2013-06-06 03:12:00,
2013-06-05 20:22:00,55.0,-99.9,-100.00,NE,45,17.0,27.0,-999,-99.99,,,-99.99,,2013-06-06 03:22:00,
2013-06-05 20:33:00,54.0,-99.9,-100.00,NE,45,16.0,26.0,-999,-99.99,,,-99.99,,2013-06-06 03:33:00,
2013-06-05 20:43:00,54.0,-99.9,-100.00,NE,45,16.0,26.0,-999,-99.99,,,-99.99,,2013-06-06 03:43:00,
2013-06-05 20:53:00,54.0,-99.9,-100.00,NE,45,13.0,26.0,-999,-99.99,,,-99.99,,2013-06-06 03:53:00,
2013-06-05 21:03:00,54.0,-99.9,-100.00,NE,45,13.0,24.0,-999,-99.99,,,-99.99,,2013-06-06 04:03:00,
2013-06-05 21:13:00,54.0,-99.9,-100.00,NE,45,13.0,24.0,-999,-99.99,,,-99.99,,2013-06-06 04:13:00,
2013-06-05 21:23:00,54.0,-99.9,-100.00,NE,45,12.0,21.0,-999,-99.99,,,-99.99,,2013-06-06 04:23:00,
2013-06-05 21:33:00,54.0,-99.9,-100.00,NE,45,10.0,21.0,-999,-99.99,,,-99.99,,2013-06-06 04:33:00,
2013-06-05 21:42:00,54.0,-99.9,-100.00,NE,45,10.0,21.0,-999,-99.99,,,-99.99,,2013-06-06 04:42:00,
2013-06-05 21:53:00,54.0,-99.9,-100.00,NE,45,14.0,21.0,-999,-99.99,,,-99.99,,2013-06-06 04:53:00,
2013-06-05 22:02:00,54.0,-99.9,-100.00,NE,45,15.0,21.0,-999,-99.99,,,-99.99,,2013-06-06 05:02:00,
2013-06-05 22:12:00,54.0,-99.9,-100.00,NE,45,15.0,21.0,-999,-99.99,,,-99.99,,2013-06-06 05:12:00,
2013-06-05 22:23:00,54.0,-99.9,-100.00,NE,45,14.0,20.0,-999,-99.99,,,-99.99,,2013-06-06 05:23:00,
2013-06-05 22:32:00,54.0,-99.9,-100.00,NE,45,10.0,19.0,-999,-99.99,,,-99.99,,2013-06-06 05:32:00,
2013-06-05 22:42:00,54.0,-99.9,-100.00,NE,45,10.0,19.0,-999,-99.99,,,-99.99,,2013-06-06 05:42:00,
2013-06-05 22:52:00,54.0,-99.9,-100.00,NE,45,10.0,15.0,-999,-99.99,,,-99.99,,2013-06-06 05:52:00,
2013-06-05 23:02:00,54.0,-99.9,-100.00,NE,45,9.0,14.0,-999,-99.99,,,-99.99,,2013-06-06 06:02:00,
2013-06-05 23:12:00,54.0,-99.9,-100.00,NE,45,9.0,14.0,-999,-99.99,,,-99.99,,2013-06-06 06:12:00,
2013-06-05 23:22:00,54.0,-99.9,-100.00,NE,45,12.0,15.0,-999,-99.99,,,-99.99,,2013-06-06 06:22:00,
2013-06-05 23:33:00,54.0,-99.9,-100.00,NE,45,11.0,16.0,-999,-99.99,,,-99.99,,2013-06-06 06:33:00,
2013-06-05 23:42:00,54.0,-99.9,-100.00,NE,45,11.0,16.0,-999,-99.99,,,-99.99,,2013-06-06 06:42:00,
2013-06-05 23:52:00,53.0,-99.9,-100.00,NE,45,14.0,17.0,-999,-99.99,,,-99.99,,2013-06-06 06:52:00,